Time,TemperatureF,DewpointF,PressureIn,WindDirection,WindDirectionDegrees,WindSpeedMPH,WindSpeedGustMPH,Humidity,HourlyPrecipIn,Conditions,Clouds,dailyrainin,SoftwareType,DateUTC
2015-05-29 00:01:00,67.9,63.9,29.87,SSW,192,1.0,1.0,87,0.00,,,0.00,Wunderground v.1.15,2015-05-29 05:01:00,
2015-05-29 00:11:00,67.7,63.7,29.87,SSW,198,1.0,2.0,87,0.00,,,0.00,Wunderground v.1.15,2015-05-29 05:11:00,
2015-05-29 00:21:00,67.6,63.6,29.87,SW,219,1.0,1.0,87,0.00,,,0.00,Wunderground v.1.15,2015-05-29 05:21:00,
2015-05-29 00:31:00,67.6,63.9,29.87,SSW,205,2.0,2.0,88,0.00,,,0.00,Wunderground v.1.15,2015-05-29 05:31:00,
2015-05-29 00:41:00,67.6,63.9,29.87,SSW,195,2.0,3.0,88,0.00,,,0.00,Wunderground v.1.15,2015-05-29 05:41:00,
2015-05-29 00:51:00,67.5,63.8,29.87,SSW,199,3.0,3.0,88,0.00,,,0.00,Wunderground v.1.15,2015-05-29 05:51:00,
2015-05-29 01:01:00,67.4,64.0,29.87,SW,220,2.0,2.0,89,0.00,,,0.00,Wunderground v.1.15,2015-05-29 06:01:00,
2015-05-29 01:11:00,67.4,64.0,29.87,SSW,213,2.0,2.0,89,0.00,,,0.00,Wunderground v.1.15,2015-05-29 06:11:00,
2015-05-29 01:21:00,67.4,64.0,29.86,SW,233,3.0,3.0,89,0.00,,,0.00,Wunderground v.1.15,2015-05-29 06:21:00,
2015-05-29 01:31:00,67.5,64.1,29.86,SSW,192,3.0,3.0,89,0.00,,,0.00,Wunderground v.1.15,2015-05-29 06:31:00,
2015-05-29 01:41:00,67.5,64.1,29.86,South,184,3.0,5.0,89,0.00,,,0.00,Wunderground v.1.15,2015-05-29 06:41:00,
2015-05-29 01:51:00,67.5,64.1,29.86,SSW,205,3.0,3.0,89,0.00,,,0.00,Wunderground v.1.15,2015-05-29 06:51:00,
2015-05-29 02:01:00,67.5,63.8,29.86,SSW,193,3.0,3.0,88,0.00,,,0.00,Wunderground v.1.15,2015-05-29 07:01:00,
2015-05-29 02:11:00,67.3,63.6,29.86,SW,231,3.0,4.0,88,0.00,,,0.00,Wunderground v.1.15,2015-05-29 07:11:00,
2015-05-29 02:21:00,67.1,63.4,29.85,SSW,196,4.0,8.0,88,0.00,,,0.00,Wunderground v.1.15,2015-05-29 07:21:00,
2015-05-29 02:31:00,66.9,63.6,29.86,SSW,196,3.0,3.0,89,0.00,,,0.00,Wunderground v.1.15,2015-05-29 07:31:00,
2015-05-29 02:41:00,66.8,63.5,29.86,WSW,248,3.0,3.0,89,0.00,,,0.00,Wunderground v.1.15,2015-05-29 07:41:00,
2015-05-29 02:51:00,66.6,63.3,29.86,South,180,3.0,3.0,89,0.00,,,0.00,Wunderground v.1.15,2015-05-29 07:51:00,
2015-05-29 03:01:00,66.3,63.3,29.86,SSW,194,3.0,3.0,90,0.00,,,0.00,Wunderground v.1.15,2015-05-29 08:01:00,
2015-05-29 03:11:00,66.1,63.1,29.85,SSW,194,2.0,2.0,90,0.00,,,0.00,Wunderground v.1.15,2015-05-29 08:11:00,
2015-05-29 03:21:00,65.9,63.2,29.85,SW,232,3.0,3.0,91,0.00,,,0.00,Wunderground v.1.15,2015-05-29 08:21:00,